EN

Hourly Weather Almaly

Today, 18 January, Monday

Time Temperature Precipitation Wind Pressure Humidity
00:00 -8°C° 0 mm 7 mps 760 mmHg 81%
01:00 -8°C° 0 mm 7 mps 760 mmHg 83%
02:00 -8°C° 0 mm 7 mps 759 mmHg 85%
03:00 -8°C° 0 mm 7 mps 759 mmHg 81%
04:00 -8°C° 0 mm 7 mps 759 mmHg 85%
05:00 -8°C° 0 mm 7 mps 758 mmHg 88%
06:00 -8°C° 0 mm 7 mps 758 mmHg 91%
07:00 -7°C° 0 mm 7 mps 758 mmHg 91%
08:00 -6°C° 0 mm 7 mps 758 mmHg 92%
09:00 -4°C° 0 mm 7 mps 758 mmHg 92%
10:00 -3°C° 0 mm 6 mps 758 mmHg 88%
11:00 -2°C° 0 mm 6 mps 758 mmHg 84%
12:00 -1°C° 0 mm 5 mps 758 mmHg 80%
13:00 0°C° 0 mm 5 mps 757 mmHg 80%
14:00 0°C° 0 mm 4 mps 757 mmHg 80%
15:00 +1°C° 0 mm 3 mps 757 mmHg 81%
16:00 +1°C° 0 mm 3 mps 757 mmHg 84%
17:00 0°C° 0 mm 3 mps 757 mmHg 88%
18:00 -1°C° 0 mm 3 mps 757 mmHg 91%
19:00 -1°C° 0 mm 3 mps 757 mmHg 91%
20:00 -1°C° 0 mm 2 mps 757 mmHg 92%
21:00 -1°C° 0 mm 2 mps 757 mmHg 92%
22:00 -1°C° 0.1 mm 3 mps 757 mmHg 92%
23:00 -3°C° 0.1 mm 4 mps 758 mmHg 93%

Tomorrow, 19 January, Tuesday

Time Temperature Precipitation Wind Pressure Humidity
00:00 -4°C° 0.1 mm 5 mps 758 mmHg 94%
01:00 -5°C° 0 mm 6 mps 758 mmHg 91%
02:00 -8°C° 0 mm 7 mps 758 mmHg 87%
03:00 -10°C° 0 mm 8 mps 759 mmHg 84%
04:00 -11°C° 0 mm 8 mps 759 mmHg 82%
05:00 -12°C° 0 mm 8 mps 760 mmHg 80%
06:00 -13°C° 0 mm 7 mps 760 mmHg 78%
07:00 -13°C° 0 mm 8 mps 761 mmHg 75%
08:00 -13°C° 0 mm 8 mps 762 mmHg 73%
09:00 -13°C° 0 mm 8 mps 762 mmHg 70%
10:00 -13°C° 0 mm 8 mps 763 mmHg 67%
11:00 -12°C° 0 mm 8 mps 763 mmHg 65%
12:00 -11°C° 0 mm 8 mps 763 mmHg 62%
13:00 -11°C° 0 mm 7 mps 764 mmHg 62%
14:00 -11°C° 0 mm 7 mps 764 mmHg 63%
15:00 -10°C° 0 mm 6 mps 764 mmHg 63%
16:00 -11°C° 0 mm 6 mps 765 mmHg 65%
17:00 -11°C° 0 mm 5 mps 765 mmHg 68%
18:00 -12°C° 0 mm 5 mps 766 mmHg 71%
19:00 -11°C° 0 mm 4 mps 766 mmHg 71%
20:00 -11°C° 0 mm 4 mps 767 mmHg 71%
21:00 -11°C° 0 mm 4 mps 767 mmHg 72%
22:00 -12°C° 0 mm 3 mps 767 mmHg 74%
23:00 -12°C° 0 mm 3 mps 767 mmHg 75%

Day after tomorrow, 20 January, Wednesday

Time Temperature Precipitation Wind Pressure Humidity
00:00 -10°C° 0 mm 2 mps 768 mmHg 77%
01:00 -10°C° 0 mm 2 mps 768 mmHg 79%
02:00 -12°C° 0 mm 2 mps 768 mmHg 81%
03:00 -10°C° 0 mm 1 mps 768 mmHg 82%
04:00 -10°C° 0 mm 1 mps 768 mmHg 83%
05:00 -12°C° 0 mm 2 mps 768 mmHg 84%
06:00 -12°C° 0 mm 2 mps 768 mmHg 85%
07:00 -10°C° 0 mm 2 mps 769 mmHg 82%
08:00 -10°C° 0 mm 3 mps 769 mmHg 78%
09:00 -10°C° 0 mm 3 mps 769 mmHg 74%
10:00 -8°C° 0 mm 3 mps 769 mmHg 69%
11:00 -8°C° 0 mm 4 mps 769 mmHg 64%
12:00 -7°C° 0 mm 4 mps 769 mmHg 59%
13:00 -7°C° 0 mm 5 mps 769 mmHg 59%
14:00 -7°C° 0 mm 5 mps 769 mmHg 58%
15:00 -7°C° 0 mm 5 mps 769 mmHg 58%
16:00 -8°C° 0 mm 4 mps 770 mmHg 59%
17:00 -9°C° 0 mm 4 mps 770 mmHg 61%
18:00 -8°C° 0 mm 3 mps 770 mmHg 63%
19:00 -9°C° 0 mm 3 mps 771 mmHg 65%
20:00 -9°C° 0 mm 3 mps 771 mmHg 67%
21:00 -9°C° 0 mm 3 mps 771 mmHg 70%
22:00 -10°C° 0 mm 3 mps 771 mmHg 73%
23:00 -10°C° 0 mm 3 mps 772 mmHg 75%

21 January, Thursday

Time Temperature Precipitation Wind Pressure Humidity
00:00 -12°C° 0 mm 3 mps 772 mmHg 78%
01:00 -12°C° 0 mm 3 mps 772 mmHg 80%
02:00 -13°C° 0 mm 3 mps 772 mmHg 83%
03:00 -13°C° 0 mm 2 mps 772 mmHg 85%
04:00 -13°C° 0 mm 2 mps 772 mmHg 85%
05:00 -13°C° 0 mm 2 mps 772 mmHg 85%
06:00 -13°C° 0 mm 2 mps 772 mmHg 86%
07:00 -14°C° 0 mm 3 mps 773 mmHg 81%
08:00 -14°C° 0 mm 3 mps 773 mmHg 76%
09:00 -15°C° 0 mm 4 mps 774 mmHg 71%
10:00 -14°C° 0 mm 4 mps 774 mmHg 65%
11:00 -14°C° 0 mm 4 mps 774 mmHg 60%
12:00 -13°C° 0 mm 5 mps 774 mmHg 54%
13:00 -13°C° 0 mm 5 mps 774 mmHg 54%
14:00 -13°C° 0 mm 5 mps 774 mmHg 54%
15:00 -13°C° 0 mm 5 mps 774 mmHg 53%
16:00 -14°C° 0 mm 4 mps 774 mmHg 56%
17:00 -14°C° 0 mm 4 mps 775 mmHg 58%
18:00 -15°C° 0 mm 4 mps 775 mmHg 61%
19:00 -14°C° 0 mm 3 mps 775 mmHg 62%
20:00 -15°C° 0 mm 3 mps 776 mmHg 64%
21:00 -14°C° 0 mm 2 mps 776 mmHg 66%
22:00 -14°C° 0 mm 2 mps 776 mmHg 67%
23:00 -14°C° 0 mm 2 mps 776 mmHg 68%

22 January, Friday

Time Temperature Precipitation Wind Pressure Humidity
00:00 -14°C° 0 mm 2 mps 776 mmHg 69%
01:00 -14°C° 0 mm 2 mps 776 mmHg 70%
02:00 -14°C° 0 mm 2 mps 776 mmHg 71%
03:00 -14°C° 0 mm 2 mps 776 mmHg 72%
04:00 -15°C° 0 mm 3 mps 776 mmHg 74%
05:00 -15°C° 0 mm 3 mps 776 mmHg 76%
06:00 -15°C° 0 mm 3 mps 776 mmHg 78%
07:00 -15°C° 0 mm 4 mps 776 mmHg 74%
08:00 -15°C° 0 mm 5 mps 776 mmHg 71%
09:00 -15°C° 0 mm 6 mps 776 mmHg 67%
10:00 -14°C° 0 mm 6 mps 776 mmHg 63%
11:00 -13°C° 0 mm 7 mps 775 mmHg 58%
12:00 -11°C° 0 mm 8 mps 775 mmHg 53%
13:00 -11°C° 0 mm 8 mps 775 mmHg 57%
14:00 -10°C° 0 mm 8 mps 774 mmHg 60%
15:00 -8°C° 0 mm 8 mps 774 mmHg 63%
16:00 -8°C° 0 mm 8 mps 774 mmHg 70%
17:00 -9°C° 0 mm 7 mps 774 mmHg 78%
18:00 -9°C° 0 mm 7 mps 773 mmHg 85%
19:00 -8°C° 0 mm 7 mps 773 mmHg 86%
20:00 -8°C° 0 mm 7 mps 774 mmHg 87%
21:00 -7°C° 0 mm 7 mps 774 mmHg 88%
22:00 -6°C° 0 mm 6 mps 774 mmHg 88%
23:00 -5°C° 0 mm 6 mps 773 mmHg 87%

23 January, Saturday

Time Temperature Precipitation Wind Pressure Humidity
00:00 -5°C° 0 mm 6 mps 773 mmHg 87%
01:00 -5°C° 0 mm 6 mps 774 mmHg 89%
02:00 -4°C° 0 mm 6 mps 774 mmHg 90%
03:00 -4°C° 0 mm 6 mps 774 mmHg 92%
04:00 -4°C° 0 mm 5 mps 774 mmHg 90%
05:00 -4°C° 0 mm 5 mps 774 mmHg 88%
06:00 -4°C° 0 mm 5 mps 774 mmHg 87%
07:00 -4°C° 0 mm 5 mps 774 mmHg 84%
08:00 -2°C° 0 mm 5 mps 775 mmHg 82%
09:00 -2°C° 0 mm 5 mps 775 mmHg 80%
10:00 -1°C° 0 mm 5 mps 775 mmHg 77%
11:00 0°C° 0 mm 5 mps 775 mmHg 74%
12:00 +1°C° 0 mm 5 mps 775 mmHg 71%
13:00 +1°C° 0 mm 4 mps 775 mmHg 71%
14:00 +1°C° 0 mm 4 mps 775 mmHg 72%
15:00 +2°C° 0 mm 3 mps 775 mmHg 72%
16:00 0°C° 0 mm 3 mps 775 mmHg 76%
17:00 -1°C° 0 mm 3 mps 775 mmHg 81%
18:00 -3°C° 0 mm 4 mps 775 mmHg 85%
19:00 -3°C° 0 mm 4 mps 775 mmHg 86%
20:00 -3°C° 0 mm 4 mps 775 mmHg 88%
21:00 -3°C° 0 mm 4 mps 775 mmHg 90%
22:00 -3°C° 0 mm 4 mps 775 mmHg 90%
23:00 -4°C° 0 mm 4 mps 774 mmHg 90%
Show more